World > North America > United States > New York
Hourly regional weather for Richfield Springs, New YorkRichfield Springs, New York Regional Hourly Weather

Richfield Springs, New York Regional Weather

regional weather richfield springs, nyHOURLY REGIONAL WEATHER FOR RICHFIELD SPRINGS, NY
Lat: 42.85N, Lon: 74.99W 
Web Search

Pass this page to a friend. Tell them to point their camera at the QR Code near the bottom of this page.

Feedback


°F Click to change Richfield Springs hourly weather to Imperial units.Click to change Richfield Springs hourly weather to Metric units. °C
Richfield Springs Weather Map
UTC Time: 8/2/2021, 22:50
Your Time:

Richfield Springs, NY Regional Weather

Expires:202108022300;;879113
ASUS41 KBGM 022210
RWRBGM

REGIONAL WEATHER ROUNDUP
NATIONAL WEATHER SERVICE BINGHAMTON NY
600 PM EDT MON AUG 02 2021

Note: "fair" indicates few or no clouds below 12,000 feet with no
significant weather and/or obstructions to visibility.

* = Station(s) that does not report precipitation, such as rain, 
snow, etc, also no thunder or fog.


NYZ009-015>018-022>025-036-037-044>046-055>057-062-022300
...Central New York...
  
CITY           SKY/WX    TMP DP  RH WIND       PRES   REMARKS
Binghamton     MOSUNNY   69  45  41 NW9       30.08R                  
Cortland       FAIR      68  45  42 W5        30.08S                  
Dansville      SUNNY     73  50  44 N10       30.08R                  
Elmira         SUNNY     74  52  46 N9        30.05S                  
Endicott       FAIR      72  46  40 N8        30.06                   
Ithaca         MOSUNNY   71  48  43 N7        30.08S                  
Monticello     MOSUNNY   72  49  44 NW10      30.05R                  
Norwich        FAIR      70  48  46 NW6       30.07                   
Oneonta        FAIR      66  46  48 NW5       30.07                   
Penn Yan       SUNNY     73  46  38 NW9       30.08S                  
Rome           MOSUNNY   72  51  47 W16       30.03R                  
Seneca Falls   FAIR      72  43  35 NW10      30.07                   
Sidney         FAIR      72  52  49 NW10      30.06                   
Skaneateles    FAIR      70  46  43 VRB3      30.08R                  
Syracuse       MOSUNNY   73  47  39 W10       30.05S                  
$$
 

SKY/WX - Weather  TMP - Temperature  DP - Dew Point  RH - Relative Humidity
WIND - Wind Direction/Speed PRES - Barometric Pressure VSB - Visibility
WCI - Wind Chill Index E13G22 Wind - East Wind 13 mph/Gusts of 22 mph